Weather reports worldwide

Advertisment
Catania/Fontanarossa, Italy (16460): temperature & dewpoint: 15.05.2019 16:00:00 - 21.05.2019 16:00:00 (CEST)Catania/Fontanarossa, Italy (16460): wind speed: 15.05.2019 16:00:00 - 21.05.2019 16:00:00 (CEST)Catania/Fontanarossa, Italy (16460): wind direction: 15.05.2019 16:00:00 - 21.05.2019 16:00:00 (CEST)Catania/Fontanarossa, Italy (16460): reduced air pressure: 15.05.2019 16:00:00 - 21.05.2019 16:00:00 (CEST)Catania/Fontanarossa, Italy (16460): visibility: 15.05.2019 16:00:00 - 21.05.2019 16:00:00 (CEST)Catania/Fontanarossa, Italy (16460): precipitation: 15.05.2019 16:00:00 - 21.05.2019 16:00:00 (CEST)
Date & Time tt [°C] td [°C] ff [km/h] ff [kn] dd ppp [hPa] vv [km] rr [mm]
21.05.2019 16:00:00 21,0 12,0 21 11 E - 10 -
21.05.2019 15:00:00 21,0 12,0 22 12 E - 10 -
21.05.2019 14:00:00 20,8 12,1 22 12 E 1016,7 10 -
21.05.2019 13:00:00 22,0 11,0 16 9 E - 10 -
21.05.2019 12:00:00 21,0 11,0 15 8 ESE - 10 -
21.05.2019 11:00:00 21,6 11,1 15 8 E 1017,0 10 0,0
21.05.2019 10:00:00 21,0 10,0 4 2 - - 10 -
21.05.2019 09:00:00 18,0 11,0 8 4 SW - 10 -
21.05.2019 08:00:00 15,4 12,4 9 5 WSW 1016,3 10 -
21.05.2019 07:00:00 10,0 10,0 5 3 WSW - 10 -
21.05.2019 06:00:00 9,0 9,0 5 3 WSW - 10 -
21.05.2019 05:00:00 9,7 9,3 5 3 W 1014,6 10 0,0
21.05.2019 04:00:00 11,0 10,0 9 5 WNW - 10 -
21.05.2019 03:00:00 12,0 11,0 5 3 S - 10 -
21.05.2019 02:00:00 12,3 11,4 9 5 WSW 1015,4 10 -
21.05.2019 01:00:00 13,0 12,0 9 5 W - 10 -
21.05.2019 00:00:00 15,0 13,0 4 2 - - 10 -
20.05.2019 23:00:00 15,3 12,8 5 3 S 1015,0 10 0,0
20.05.2019 22:00:00 16,0 13,0 5 3 ESE - 10 -
20.05.2019 21:00:00 17,0 12,0 4 2 - - 10 -
20.05.2019 20:00:00 18,1 12,3 15 8 ENE 1013,3 10 -
20.05.2019 19:00:00 19,0 13,0 22 12 ENE - 10 -
20.05.2019 18:00:00 21,0 11,0 22 12 ENE - 10 -
20.05.2019 17:00:00 21,7 10,5 22 12 ENE 1012,6 10 0,0
20.05.2019 16:00:00 22,0 11,0 24 13 ENE - 10 -
20.05.2019 15:00:00 21,0 13,0 24 13 ENE - 10 -
20.05.2019 14:00:00 24,9 3,6 24 13 W 1012,6 10 -
20.05.2019 13:00:00 24,0 7,0 15 8 W - 10 -
20.05.2019 12:00:00 24,0 7,0 16 9 W - 10 -
20.05.2019 11:00:00 22,6 7,2 26 14 W 1012,8 10 0,0
20.05.2019 10:00:00 21,0 6,0 21 11 W - 10 -
20.05.2019 09:00:00 20,0 8,0 18 10 WNW - 10 -
20.05.2019 08:00:00 17,3 11,3 13 7 W 1012,5 10 -
20.05.2019 07:00:00 15,0 12,0 13 7 WSW - 10 -
20.05.2019 06:00:00 15,0 12,0 11 6 WSW - 10 -
20.05.2019 05:00:00 15,2 11,9 11 6 WSW 1011,0 10 0,0
20.05.2019 04:00:00 15,0 15,0 13 7 WSW - 10 -
20.05.2019 03:00:00 15,0 15,0 11 6 WSW - 10 -
20.05.2019 02:00:00 15,8 14,4 9 5 SSW 1011,3 10 -
20.05.2019 01:00:00 17,0 14,0 2 1 - - 10 -
20.05.2019 00:00:00 17,0 14,0 2 1 - - 10 -
19.05.2019 23:00:00 16,6 14,3 4 2 - 1011,4 10 0,0
19.05.2019 22:00:00 17,0 14,0 4 2 S - 10 -
19.05.2019 21:00:00 17,0 14,0 4 2 SE - 10 -
19.05.2019 20:00:00 18,0 13,8 5 3 ESE 1009,5 10 -
19.05.2019 19:00:00 19,0 14,0 9 5 E - 10 -
19.05.2019 18:00:00 19,0 14,0 15 8 E - 10 -
19.05.2019 17:00:00 19,5 12,9 16 9 E 1008,1 10 0,0
19.05.2019 16:00:00 20,0 14,0 16 9 E - 10 -
19.05.2019 15:00:00 21,0 14,0 21 11 E - 10 -
19.05.2019 14:00:00 20,8 15,1 21 11 E 1007,3 10 -
19.05.2019 13:00:00 21,0 15,0 18 10 E - 10 -
19.05.2019 12:00:00 22,0 14,0 15 8 - - 10 -
19.05.2019 11:00:00 24,2 8,7 18 10 WSW 1006,0 10 0,0
19.05.2019 10:00:00 21,0 14,0 16 9 W - 10 -
19.05.2019 09:00:00 19,0 15,0 13 7 W - 10 -
19.05.2019 08:00:00 17,0 16,6 5 3 WSW 1006,0 10 -
19.05.2019 07:00:00 15,0 15,0 5 3 WSW - 5 -
19.05.2019 06:00:00 15,0 15,0 9 5 W - 7 -
19.05.2019 05:00:00 15,8 15,8 8 4 W 1005,8 10 0,0
19.05.2019 04:00:00 15,0 15,0 9 5 W - 10 -
19.05.2019 03:00:00 15,0 14,0 2 1 W - 10 -
19.05.2019 02:00:00 15,5 14,7 2 1 - 1006,3 10 -
19.05.2019 01:00:00 17,0 15,0 5 3 N - 10 -
19.05.2019 00:00:00 17,0 15,0 8 4 NNE - 10 -
18.05.2019 23:00:00 17,4 15,9 13 7 NE 1008,0 10 0,0
18.05.2019 22:00:00 18,0 16,0 13 7 N - 10 -
18.05.2019 21:00:00 18,0 16,0 15 8 NE - 10 -
18.05.2019 20:00:00 17,7 16,0 18 10 NE 1007,3 10 -
18.05.2019 19:00:00 18,0 16,0 18 10 NE - 10 -
18.05.2019 18:00:00 18,0 16,0 18 10 ENE - 10 -
18.05.2019 17:00:00 18,5 15,5 22 12 ENE 1007,3 10 0,0
18.05.2019 16:00:00 19,0 15,0 26 14 ENE - 10 -
18.05.2019 15:00:00 19,0 13,0 18 10 NNE - 10 -
18.05.2019 14:00:00 18,5 13,9 21 11 NE 1008,2 10 -
18.05.2019 13:00:00 19,0 15,0 22 12 NE - 10 -
18.05.2019 12:00:00 18,0 15,0 22 12 NE - 10 -
18.05.2019 11:00:00 18,0 14,5 16 9 ENE 1009,7 10 0,0
18.05.2019 10:00:00 18,0 14,0 15 8 NE - 10 -
18.05.2019 09:00:00 17,0 14,0 18 10 NE - 10 -
18.05.2019 08:00:00 16,8 14,7 15 8 NE 1009,1 10 -
18.05.2019 07:00:00 15,0 15,0 9 5 ENE - 7 -
18.05.2019 06:00:00 13,0 13,0 4 2 - - 5 -
18.05.2019 05:00:00 13,0 12,8 4 2 WNW 1009,2 10 0,0
18.05.2019 04:00:00 13,0 12,0 8 4 SSW - 10 -
18.05.2019 03:00:00 15,0 14,0 9 5 NE - 10 -
18.05.2019 02:00:00 15,9 14,6 8 4 NNE 1010,7 10 -
18.05.2019 01:00:00 16,0 15,0 11 6 NE - 10 -
18.05.2019 00:00:00 16,0 15,0 15 8 NE - 10 -
17.05.2019 23:00:00 16,3 14,9 18 10 NE 1010,7 10 0,0
17.05.2019 22:00:00 17,0 15,0 21 11 NE - 10 -
17.05.2019 21:00:00 17,0 14,0 21 11 NE - 10 -
17.05.2019 20:00:00 17,1 14,4 21 11 NE 1010,2 10 -
17.05.2019 19:00:00 18,0 14,0 21 11 E - 10 -
17.05.2019 18:00:00 19,0 14,0 22 12 ESE - 10 -
17.05.2019 17:00:00 18,6 12,8 24 13 ESE 1010,4 10 0,0
17.05.2019 16:00:00 20,0 12,0 22 12 SE - 10 -
17.05.2019 15:00:00 20,0 12,0 24 13 SE - 10 -
17.05.2019 14:00:00 20,4 11,6 22 12 SE 1011,2 10 -
17.05.2019 13:00:00 20,0 9,0 21 11 SE - 10 -
17.05.2019 12:00:00 21,0 11,0 13 7 SE - 10 -
17.05.2019 11:00:00 19,6 10,0 9 5 - 1012,1 10 0,0
17.05.2019 10:00:00 18,0 10,0 11 6 WSW - 10 -
17.05.2019 09:00:00 15,0 13,0 13 7 SW - 10 -
17.05.2019 08:00:00 12,1 11,8 11 6 WSW 1012,3 10 -
17.05.2019 07:00:00 8,0 8,0 8 4 WSW - 10 -
17.05.2019 06:00:00 8,0 8,0 8 4 WSW - 10 -
17.05.2019 05:00:00 8,4 8,4 9 5 WSW 1010,5 10 0,0
17.05.2019 04:00:00 9,0 9,0 8 4 W - 10 -
17.05.2019 03:00:00 8,0 8,0 8 4 W - 10 -
17.05.2019 02:00:00 9,1 9,0 11 6 WSW 1010,5 10 -
17.05.2019 01:00:00 9,0 9,0 13 7 WSW - 10 -
17.05.2019 00:00:00 10,0 10,0 5 3 - - 10 -
16.05.2019 23:00:00 10,4 9,7 5 3 W 1011,0 10 0,0
16.05.2019 22:00:00 - - - - - - - -
16.05.2019 21:00:00 13,0 12,0 11 6 SSW - 10 -
16.05.2019 20:00:00 14,1 12,7 8 4 SSW 1008,3 10 -
16.05.2019 19:00:00 15,0 13,0 8 4 WSW - 10 -
16.05.2019 18:00:00 13,0 12,0 16 9 WNW - 10 -
16.05.2019 17:00:00 11,9 11,2 8 4 WSW 1006,9 6 0,0
16.05.2019 16:00:00 13,0 10,0 24 13 NNW - 7 -
16.05.2019 15:00:00 13,0 10,0 18 10 NNW - 6 -
16.05.2019 14:00:00 15,6 12,7 24 13 NE 1005,9 8 -
16.05.2019 13:00:00 17,0 12,0 29 16 ENE - 10 -
16.05.2019 12:00:00 17,0 13,0 22 12 ENE - 10 -
16.05.2019 11:00:00 15,2 13,2 16 9 NNE 1006,1 10 0,0
16.05.2019 10:00:00 14,0 14,0 15 8 NNE - 10 -
16.05.2019 09:00:00 13,0 13,0 9 5 - - 8 -
16.05.2019 08:00:00 13,9 13,9 16 9 ENE 1005,9 4,0 -
16.05.2019 07:00:00 13,0 13,0 8 4 N - 7 -
16.05.2019 06:00:00 12,0 12,0 8 4 W - 8 -
16.05.2019 05:00:00 12,1 11,9 9 5 SW 1007,7 10 0,0
16.05.2019 04:00:00 12,0 12,0 11 6 WSW - 10 -
16.05.2019 03:00:00 12,0 12,0 9 5 W - 10 -
16.05.2019 02:00:00 11,5 11,2 9 5 W 1009,5 10 -
16.05.2019 01:00:00 21,0 19,0 8 4 W - 10 -
16.05.2019 00:00:00 22,0 19,0 8 4 W - 10 -
15.05.2019 23:00:00 13,1 11,5 5 3 WSW 1011,0 10 0,0
15.05.2019 22:00:00 15,0 12,0 4 2 - - 10 -
15.05.2019 21:00:00 16,0 13,0 8 4 NNE - 10 -
15.05.2019 20:00:00 15,8 12,9 9 5 NE 1010,5 10 -
15.05.2019 19:00:00 16,0 12,0 11 6 NE - 6 -
15.05.2019 18:00:00 16,0 14,0 9 5 ENE - 5 -
15.05.2019 17:00:00 16,4 13,9 11 6 E 1010,8 10 0,0
15.05.2019 16:00:00 17,0 12,0 16 9 E - 10 -

tt = temperature
td = dewpoint
ff = wind speed
dd = wind direction
ppp = reduced air pressure
vv = visibility
rr = precipitation

Next stations